Northport, AL

9:42 PM CST on February 24, 2017 (GMT -0600)
Tuscaloosa Municipal

Weather History for KTCL - June, 2014

Change the Weather History Date:

Friday, June 6, 2014

  Actual Average Record
Temperature  
Mean Temperature 81 °F 77 °F  
Max Temperature 93 °F 88 °F 100 °F (1977)
Min Temperature 69 °F 66 °F 52 °F (1954)
Cooling Degree Days 16    
Growing Degree Days 32 (Base 50)    
Moisture  
Dew Point 70 °F    
Average Humidity 75    
Maximum Humidity 100    
Minimum Humidity 49    
Precipitation  
Precipitation 0.14 in 0.14 in 1.51 in (1964)
Month to date precipitation 0.14 0.90  
Year to date precipitation 25.18 24.30  
Sea Level Pressure  
Sea Level Pressure 29.94 in    
Wind  
Wind Speed 5 mph (West)    
Max Wind Speed 25 mph    
Max Gust Speed 36 mph    
Visibility 9 miles    
Events Rain , Thunderstorm    
T = Trace of Precipitation, MM = Missing Value Source: NWS Daily Summary

Daily Weather History Graph

Daily Weather History Graph

Search for Another Location

Airport or City:

Trip Planner

Search our weather history database for the weather conditions in past years. The results will help you decide how hot, cold, wet, or windy it might be!

Date:

Astronomy

Jun. 06, 2014 Rise Set
Actual Time 5:41 AM CDT 7:57 PM CDT
Civil Twilight 5:12 AM CDT 8:25 PM CDT
Nautical Twilight 4:37 AM CDT 9:00 PM CDT
Astronomical Twilight 3:59 AM CDT 9:38 PM CDT
Moon 1:34 PM CDT (6/6) 1:12 AM CDT (6/6)
Length of Visible Light 15h 13m
Length of Day
14h 16m
First Quarter, 58% of the Moon is Illuminated
Jun 6
First Quarter
Jun 12
Full
Jun 19
Last Quarter
Jun 27
New
Jul 5
First Quarter

Hourly Weather History & Observations

Time (CDT) Temp. Heat Index Dew Point Humidity Pressure Visibility Wind Dir Wind Speed Gust Speed Precip Events Conditions
12:53 AM 73.9 °F - 71.1 °F 91% 29.94 in 10.0 mi NNE 6.9 mph - N/A   Clear
1:53 AM 73.0 °F - 69.1 °F 87% 29.93 in 10.0 mi Calm Calm - N/A   Clear
2:53 AM 72.0 °F - 68.0 °F 87% 29.93 in 10.0 mi Calm Calm - N/A   Scattered Clouds
3:53 AM 72.0 °F - 69.1 °F 91% 29.93 in 10.0 mi Calm Calm - N/A   Overcast
4:53 AM 73.0 °F - 69.1 °F 87% 29.94 in 10.0 mi Calm Calm - N/A   Overcast
5:53 AM 70.0 °F - 69.1 °F 97% 29.96 in 9.0 mi Calm Calm - N/A   Partly Cloudy
6:53 AM 75.0 °F - 70.0 °F 84% 29.96 in 10.0 mi Calm Calm - N/A   Partly Cloudy
7:53 AM 77.0 °F - 72.0 °F 84% 29.94 in 9.0 mi South 3.5 mph - N/A   Clear
8:53 AM 82.0 °F 87.4 °F 73.0 °F 74% 29.93 in 10.0 mi SSW 9.2 mph - N/A   Clear
10:53 AM 87.1 °F 94.5 °F 73.0 °F 63% 29.93 in 10.0 mi West 8.1 mph - N/A   Partly Cloudy
11:53 AM 88.0 °F 94.7 °F 72.0 °F 59% 29.94 in 10.0 mi West 5.8 mph - N/A   Scattered Clouds
12:53 PM 91.9 °F 99.5 °F 72.0 °F 52% 29.92 in 10.0 mi SW 10.4 mph - N/A   Partly Cloudy
1:53 PM 90.0 °F 95.4 °F 70.0 °F 52% 29.91 in 10.0 mi WSW 8.1 mph - N/A   Partly Cloudy
2:53 PM 93.0 °F 100.1 °F 71.1 °F 49% 29.88 in 10.0 mi WSW 9.2 mph 17.3 mph N/A   Partly Cloudy
3:53 PM 90.0 °F 96.9 °F 72.0 °F 55% 29.88 in 10.0 mi WNW 6.9 mph - N/A   Clear
4:53 PM 88.0 °F 95.6 °F 73.0 °F 61% 29.89 in 10.0 mi WNW 4.6 mph - N/A   Clear
5:19 PM 87.8 °F 95.6 °F 73.4 °F 62% 29.89 in 10.0 mi WNW 4.6 mph - N/A Thunderstorm Mostly Cloudy
5:49 PM 73.4 °F - 69.8 °F 88% 29.96 in 1.8 mi West 13.8 mph 25.3 mph 0.08 in Rain , Thunderstorm Heavy Thunderstorms and Rain
5:53 PM 73.0 °F - 68.0 °F 84% 29.98 in 1.8 mi West 12.7 mph 25.3 mph 0.12 in Rain , Thunderstorm Heavy Thunderstorms and Rain
5:58 PM 73.4 °F - 69.8 °F 88% 29.98 in 3.0 mi NW 11.5 mph - 0.01 in Rain , Thunderstorm Light Thunderstorms and Rain
6:51 PM 73.4 °F - 69.8 °F 88% 29.96 in 10.0 mi East 9.2 mph - 0.02 in Rain Light Rain
6:53 PM 72.0 °F - 70.0 °F 93% 29.95 in 10.0 mi East 10.4 mph - 0.02 in Rain Light Rain
7:53 PM 73.0 °F - 69.1 °F 87% 29.89 in 10.0 mi North 6.9 mph - 0.00 in   Clear
8:53 PM 72.0 °F - 70.0 °F 93% 29.95 in 10.0 mi SSW 6.9 mph - N/A   Clear
9:53 PM 72.0 °F - 69.1 °F 91% 29.96 in 10.0 mi Calm Calm - N/A   Clear
10:53 PM 71.1 °F - 69.1 °F 93% 29.96 in 10.0 mi Calm Calm - N/A   Clear
11:53 PM 71.1 °F - 69.1 °F 93% 29.96 in 10.0 mi Calm Calm - N/A   Clear